EWG44 EDDH-EDDG

Flight info

Callsign EWG44
Flight time 0h 36m
Altitude 23000
Route HABFU1C HABFU Y348 MAWEQ Z718 OSN
Aircraft A20N/M-SDE2E3FGHIRWXY/LB1

Departure

Time 2026-05-06 14:47
Airport Hamburg Helmut Schmidt Airport (EDDH)

Arrival

Time 2026-05-06 15:23
Airport Münster Osnabrück Airport (EDDG)
Time Latitude Longitude Altitude Speed Heading
2026-05-06 13:57 53.62892 10.00214 50 ft 0 kts 122°
2026-05-06 14:25 53.62895 10.00204 50 ft 1 kts 122°
2026-05-06 14:25 53.62900 10.00193 47 ft 1 kts 122°
2026-05-06 14:25 53.62904 10.00181 48 ft 1 kts 122°
2026-05-06 14:25 53.62908 10.00170 50 ft 1 kts 122°
2026-05-06 14:26 53.62915 10.00150 50 ft 2 kts 122°
2026-05-06 14:26 53.62923 10.00130 46 ft 1 kts 122°
2026-05-06 14:26 53.62927 10.00118 49 ft 1 kts 135°
2026-05-06 14:26 53.62933 10.00109 48 ft 1 kts 152°
2026-05-06 14:27 53.62940 10.00103 46 ft 1 kts 168°
2026-05-06 14:27 53.62948 10.00101 48 ft 1 kts 184°
2026-05-06 14:27 53.62956 10.00103 46 ft 1 kts 200°
2026-05-06 14:27 53.62960 10.00105 45 ft 0 kts 209°
2026-05-06 14:29 53.62955 10.00101 46 ft 2 kts 209°
2026-05-06 14:29 53.62932 10.00075 48 ft 6 kts 214°
2026-05-06 14:30 53.62884 10.00037 48 ft 9 kts 201°
2026-05-06 14:30 53.62843 9.99956 48 ft 0 kts 242°
2026-05-06 14:43 53.62842 9.99955 50 ft 1 kts 242°
2026-05-06 14:44 53.62832 9.99922 48 ft 7 kts 242°
2026-05-06 14:44 53.62821 9.99788 48 ft 15 kts 295°
2026-05-06 14:44 53.62835 9.99769 48 ft 4 kts 332°
2026-05-06 14:45 53.62837 9.99768 48 ft 0 kts 332°
2026-05-06 14:46 53.62841 9.99765 48 ft 3 kts 334°
2026-05-06 14:46 53.63049 9.99585 49 ft 70 kts 334°
2026-05-06 14:46 53.63672 9.99046 49 ft 129 kts 333°
2026-05-06 14:47 53.64585 9.98241 262 ft 154 kts 335°
2026-05-06 14:47 53.65517 9.97398 1028 ft 151 kts 337°
2026-05-06 14:47 53.66443 9.96577 1680 ft 152 kts 339°
2026-05-06 14:47 53.67400 9.95766 2134 ft 167 kts 341°
2026-05-06 14:48 53.68581 9.94864 2523 ft 205 kts 342°
2026-05-06 14:48 53.70016 9.93813 3011 ft 243 kts 335°
2026-05-06 14:48 53.71299 9.91819 3729 ft 259 kts 308°
2026-05-06 14:48 53.71923 9.89080 3831 ft 245 kts 276°
2026-05-06 14:49 53.71677 9.86370 3901 ft 228 kts 248°
2026-05-06 14:49 53.70978 9.83980 3633 ft 226 kts 240°
2026-05-06 14:49 53.70232 9.81646 3326 ft 227 kts 243°
2026-05-06 14:49 53.69563 9.79228 3049 ft 227 kts 248°
2026-05-06 14:50 53.68981 9.76758 2868 ft 227 kts 251°
2026-05-06 14:50 53.68460 9.74284 2684 ft 226 kts 252°
2026-05-06 14:50 53.67964 9.71783 2544 ft 225 kts 253°
2026-05-06 14:50 53.67482 9.69268 2410 ft 227 kts 253°
2026-05-06 14:51 53.66982 9.66701 2421 ft 236 kts 253°
2026-05-06 14:51 53.66442 9.63951 2598 ft 259 kts 253°
2026-05-06 14:51 53.65851 9.60964 3216 ft 278 kts 252°
2026-05-06 14:51 53.64917 9.58102 4175 ft 279 kts 225°
2026-05-06 14:52 53.63387 9.56206 5330 ft 275 kts 207°
2026-05-06 14:52 53.61690 9.54648 6266 ft 280 kts 206°
2026-05-06 14:52 53.59991 9.53107 7262 ft 282 kts 206°
2026-05-06 14:52 53.58234 9.51514 8234 ft 285 kts 206°
2026-05-06 14:53 53.56498 9.49932 9147 ft 289 kts 206°
2026-05-06 14:53 53.54724 9.48311 10142 ft 293 kts 206°
2026-05-06 14:53 53.52858 9.46607 10740 ft 313 kts 206°
2026-05-06 14:53 53.50898 9.44820 11171 ft 334 kts 206°
2026-05-06 14:54 53.48824 9.42931 11990 ft 340 kts 206°
2026-05-06 14:54 53.46744 9.41033 12968 ft 342 kts 207°
2026-05-06 14:54 53.44647 9.39118 13896 ft 343 kts 207°
2026-05-06 14:54 53.42545 9.37204 14667 ft 345 kts 207°
2026-05-06 14:55 53.40429 9.35283 15373 ft 350 kts 207°
2026-05-06 14:55 53.38284 9.33340 16123 ft 352 kts 207°
2026-05-06 14:55 53.36137 9.31399 16897 ft 353 kts 208°
2026-05-06 14:55 53.33956 9.29491 17614 ft 357 kts 205°
2026-05-06 14:56 53.31622 9.27976 18284 ft 362 kts 197°
2026-05-06 14:56 53.29169 9.26981 18883 ft 366 kts 190°
2026-05-06 14:56 53.26640 9.26255 19480 ft 370 kts 190°
2026-05-06 14:56 53.24097 9.25514 20095 ft 373 kts 190°
2026-05-06 14:57 53.21524 9.24755 20706 ft 377 kts 190°
2026-05-06 14:57 53.18911 9.23980 21360 ft 379 kts 190°
2026-05-06 14:57 53.16326 9.23211 21851 ft 386 kts 190°
2026-05-06 14:57 53.13676 9.22423 22404 ft 390 kts 190°
2026-05-06 14:58 53.10993 9.21626 22520 ft 391 kts 190°
2026-05-06 14:58 53.08350 9.20842 22626 ft 389 kts 190°
2026-05-06 14:58 53.05680 9.20052 22740 ft 389 kts 190°
2026-05-06 14:58 53.03009 9.19262 22859 ft 393 kts 190°
2026-05-06 14:59 53.00313 9.18466 22870 ft 393 kts 190°
2026-05-06 14:59 52.97622 9.17651 22868 ft 394 kts 192°
2026-05-06 14:59 52.94996 9.16435 22871 ft 390 kts 199°
2026-05-06 14:59 52.92506 9.14704 22869 ft 390 kts 206°
2026-05-06 15:00 52.90102 9.12586 22872 ft 394 kts 208°
2026-05-06 15:00 52.87663 9.10416 22874 ft 398 kts 207°
2026-05-06 15:00 52.85217 9.08256 22873 ft 394 kts 207°
2026-05-06 15:00 52.82807 9.06140 22872 ft 393 kts 207°
2026-05-06 15:01 52.80378 9.04015 22867 ft 397 kts 207°
2026-05-06 15:01 52.77929 9.01878 22863 ft 397 kts 207°
2026-05-06 15:01 52.75503 8.99759 22865 ft 393 kts 207°
2026-05-06 15:01 52.73115 8.97679 22859 ft 395 kts 207°
2026-05-06 15:02 52.70702 8.95581 22855 ft 396 kts 207°
2026-05-06 15:02 52.68264 8.93462 22856 ft 396 kts 207°
2026-05-06 15:02 52.65815 8.91337 22857 ft 392 kts 207°
2026-05-06 15:02 52.63405 8.89250 22857 ft 392 kts 207°
2026-05-06 15:03 52.60984 8.87153 22850 ft 395 kts 207°
2026-05-06 15:03 52.58579 8.85072 22847 ft 394 kts 207°
2026-05-06 15:03 52.56182 8.83001 22847 ft 392 kts 207°
2026-05-06 15:03 52.53716 8.80874 22846 ft 394 kts 207°
2026-05-06 15:04 52.51336 8.78824 22844 ft 397 kts 207°
2026-05-06 15:04 52.48875 8.76706 22843 ft 394 kts 207°
2026-05-06 15:04 52.46478 8.74645 22844 ft 393 kts 207°
2026-05-06 15:04 52.44045 8.72557 22831 ft 395 kts 208°
2026-05-06 15:05 52.41611 8.70475 22837 ft 396 kts 208°
2026-05-06 15:05 52.39173 8.68389 22837 ft 394 kts 208°
2026-05-06 15:05 52.36736 8.66306 22777 ft 392 kts 208°
2026-05-06 15:05 52.34350 8.64267 22424 ft 390 kts 208°
2026-05-06 15:06 52.31926 8.62199 21884 ft 388 kts 208°
2026-05-06 15:06 52.29589 8.60066 21358 ft 383 kts 216°
2026-05-06 15:06 52.27635 8.57217 20779 ft 379 kts 230°
2026-05-06 15:06 52.26196 8.53642 20190 ft 376 kts 244°
2026-05-06 15:07 52.25220 8.49747 19653 ft 373 kts 248°
2026-05-06 15:07 52.24270 8.45840 19131 ft 369 kts 248°
2026-05-06 15:07 52.23320 8.41958 18611 ft 366 kts 248°
2026-05-06 15:07 52.22375 8.38127 17986 ft 365 kts 249°
2026-05-06 15:08 52.21427 8.34293 17419 ft 362 kts 249°
2026-05-06 15:08 52.20495 8.30517 16874 ft 358 kts 249°
2026-05-06 15:08 52.19735 8.26673 16324 ft 354 kts 256°
2026-05-06 15:08 52.19204 8.22780 15781 ft 351 kts 257°
2026-05-06 15:09 52.18672 8.18885 15246 ft 348 kts 257°
2026-05-06 15:09 52.18149 8.15102 14740 ft 345 kts 257°
2026-05-06 15:09 52.17625 8.11331 14236 ft 342 kts 257°
2026-05-06 15:09 52.17100 8.07573 13742 ft 339 kts 256°
2026-05-06 15:10 52.16576 8.03831 13173 ft 337 kts 256°
2026-05-06 15:10 52.16039 8.00130 12586 ft 336 kts 255°
2026-05-06 15:10 52.15378 7.96496 12082 ft 333 kts 252°
2026-05-06 15:10 52.14710 7.92871 11583 ft 331 kts 254°
2026-05-06 15:11 52.14090 7.89275 11123 ft 328 kts 254°
2026-05-06 15:11 52.13456 7.85776 10318 ft 336 kts 255°
2026-05-06 15:11 52.12719 7.82115 9743 ft 339 kts 254°
2026-05-06 15:11 52.11983 7.78550 9543 ft 322 kts 254°
2026-05-06 15:12 52.11288 7.75208 9338 ft 303 kts 254°
2026-05-06 15:12 52.10630 7.72058 9162 ft 284 kts 254°
2026-05-06 15:12 52.10012 7.69116 9001 ft 267 kts 254°
2026-05-06 15:12 52.09427 7.66346 8784 ft 252 kts 254°
2026-05-06 15:13 52.08862 7.63663 8368 ft 248 kts 254°
2026-05-06 15:13 52.08326 7.61073 7919 ft 246 kts 254°
2026-05-06 15:13 52.07775 7.58374 7578 ft 246 kts 254°
2026-05-06 15:13 52.07250 7.55782 7280 ft 244 kts 254°
2026-05-06 15:14 52.06718 7.53165 6929 ft 244 kts 254°
2026-05-06 15:14 52.06196 7.50577 6655 ft 242 kts 254°
2026-05-06 15:14 52.05684 7.47975 6308 ft 243 kts 254°
2026-05-06 15:14 52.05178 7.45370 6083 ft 239 kts 254°
2026-05-06 15:15 52.04693 7.42815 5846 ft 234 kts 254°
2026-05-06 15:15 52.04207 7.40308 5577 ft 231 kts 255°
2026-05-06 15:15 52.03708 7.37815 5205 ft 232 kts 254°
2026-05-06 15:15 52.03302 7.35323 4831 ft 232 kts 269°
2026-05-06 15:16 52.03624 7.32807 4400 ft 228 kts 304°
2026-05-06 15:16 52.04705 7.31059 4118 ft 217 kts 337°
2026-05-06 15:16 52.06150 7.30611 3776 ft 211 kts 11°
2026-05-06 15:16 52.07436 7.31565 3480 ft 206 kts 42°
2026-05-06 15:17 52.08282 7.33381 3264 ft 200 kts 65°
2026-05-06 15:17 52.08523 7.35529 3166 ft 191 kts 96°
2026-05-06 15:17 52.08204 7.37513 3108 ft 174 kts 102°
2026-05-06 15:17 52.07959 7.39325 2992 ft 158 kts 93°
2026-05-06 15:18 52.07922 7.41013 2885 ft 142 kts 82°
2026-05-06 15:18 52.08049 7.42572 2878 ft 143 kts 74°
2026-05-06 15:18 52.08289 7.44100 2862 ft 137 kts 69°
2026-05-06 15:18 52.08607 7.45571 2857 ft 138 kts 67°
2026-05-06 15:19 52.08922 7.47058 2795 ft 139 kts 68°
2026-05-06 15:19 52.09231 7.48515 2605 ft 135 kts 68°
2026-05-06 15:19 52.09540 7.49971 2422 ft 134 kts 67°
2026-05-06 15:19 52.09843 7.51397 2233 ft 136 kts 67°
2026-05-06 15:20 52.10150 7.52850 2061 ft 131 kts 67°
2026-05-06 15:20 52.10430 7.54172 1878 ft 125 kts 66°
2026-05-06 15:20 52.10714 7.55508 1710 ft 125 kts 67°
2026-05-06 15:20 52.11001 7.56858 1530 ft 127 kts 67°
2026-05-06 15:21 52.11290 7.58222 1356 ft 128 kts 68°
2026-05-06 15:21 52.11577 7.59581 1174 ft 127 kts 66°
2026-05-06 15:21 52.11868 7.60956 980 ft 128 kts 66°
2026-05-06 15:21 52.12158 7.62322 800 ft 130 kts 67°
2026-05-06 15:22 52.12456 7.63726 630 ft 132 kts 68°
2026-05-06 15:22 52.12746 7.65125 439 ft 129 kts 66°
2026-05-06 15:22 52.13039 7.66483 256 ft 128 kts 66°
2026-05-06 15:22 52.13330 7.67831 163 ft 113 kts 69°
2026-05-06 15:23 52.13500 7.68633 166 ft 56 kts 71°
2026-05-06 15:23 52.13618 7.69190 171 ft 48 kts 70°
2026-05-06 15:23 52.13718 7.69670 168 ft 42 kts 72°
2026-05-06 15:23 52.13757 7.69988 164 ft 20 kts 129°
2026-05-06 15:24 52.13626 7.69998 165 ft 20 kts 220°
2026-05-06 15:24 52.13600 7.69940 165 ft 0 kts 243°
2026-05-06 15:25 52.13599 7.69937 165 ft 1 kts 244°
2026-05-06 15:25 52.13589 7.69899 165 ft 6 kts 248°
2026-05-06 15:25 52.13570 7.69819 165 ft 9 kts 251°
2026-05-06 15:25 52.13549 7.69715 167 ft 10 kts 252°
2026-05-06 15:26 52.13524 7.69588 167 ft 13 kts 251°
2026-05-06 15:26 52.13490 7.69426 167 ft 16 kts 250°
2026-05-06 15:26 52.13444 7.69250 165 ft 17 kts 229°
2026-05-06 15:26 52.13350 7.69265 164 ft 15 kts 163°
2026-05-06 15:27 52.13247 7.69327 166 ft 16 kts 159°
2026-05-06 15:27 52.13228 7.69337 166 ft 0 kts 165°
2026-05-06 15:27 52.13220 7.69334 167 ft 3 kts 197°
2026-05-06 15:27 52.13194 7.69322 167 ft 5 kts 193°
2026-05-06 15:28 52.13160 7.69312 167 ft 0 kts 189°
2026-05-06 15:28 52.13161 7.69313 167 ft 0 kts 189°